Back to catalog

BREEZE-M DEB

AliveHEO
NORAD 38619·DEBRIS·🇷🇺 Russia

Launched Mar 14, 2008 from Baikonur Cosmodrome

Loading…

Next Passes (next 24 hours)

TLE

FreshSource: Space-Track

Epoch: Sep 13, 2026, 08:16 UTC

1 38619U 08011BS  26256.34477608 -.00000104  00000-0  00000-0 0  9993
2 38619  49.2664  33.8345 6348482 201.7179 110.6560  3.05797464168726

Track BREEZE-M DEB in real time with AllMySat

Download on the App Store